Weather History for KPWK - April, 2014

Change the Weather History Date:

Tuesday, April 1, 2014

  Actual Average Record
Temperature  
Mean Temperature 45 °F 43 °F  
Max Temperature 57 °F 52 °F 83 °F (2010)
Min Temperature 33 °F 33 °F 26 °F (2011)
Degree Days  
Heating Degree Days 20 22  
Month to date heating degree days 20 22  
Since 1 July heating degree days 6426 5613  
Cooling Degree Days 0 0  
Month to date cooling degree days 0 0  
Year to date cooling degree days 0 0  
Moisture  
Dew Point 26 °F    
Average Humidity 54    
Maximum Humidity 62    
Minimum Humidity 44    
Precipitation  
Precipitation 0.00 in 0.08 in 0.19 in (2002)
Month to date precipitation 0.00 0.08  
Year to date precipitation 2.68 4.91  
Sea Level Pressure  
Sea Level Pressure 29.88 in    
Wind  
Wind Speed 15 mph (WSW)    
Max Wind Speed 26 mph    
Max Gust Speed 36 mph    
Visibility 10 miles    
Events      
T = Trace of Precipitation, MM = Missing Value Source: NWS Daily Summary

Daily Weather History Graph

Daily Weather History Graph

Search for Another Location

Airport or City:

Trip Planner

Search our weather history database for the weather conditions in past years. The results will help you decide how hot, cold, wet, or windy it might be!

Date:

Astronomy

Apr. 01, 2014 Rise Set
Actual Time 6:34 AM CDT 7:17 PM CDT
Civil Twilight 6:06 AM CDT 7:45 PM CDT
Nautical Twilight 5:32 AM CDT 8:19 PM CDT
Astronomical Twilight 4:58 AM CDT 8:53 PM CDT
Moon 7:34 AM CDT (4/1) 9:42 PM CDT (4/1)
Length of Visible Light 13h 39m
Length of Day
12h 43m
Waxing Crescent, 5% of the Moon is Illuminated
Apr 1
Waxing Crescent
Apr 7
First Quarter
Apr 15
Full
Apr 22
Last Quarter
Apr 29
New

Hourly Weather History & Observations

Time (CDT) Temp. Windchill Dew Point Humidity Pressure Visibility Wind Dir Wind Speed Gust Speed Precip Events Conditions
12:52 AM 55.0 °F - 39.0 °F 55% 29.69 in 10.0 mi South 18.4 mph - N/A   Partly Cloudy
1:52 AM 57.0 °F - 41.0 °F 55% 29.67 in 10.0 mi SSW 18.4 mph - N/A   Clear
2:52 AM 55.0 °F - 42.1 °F 62% 29.68 in 10.0 mi SSW 12.7 mph - N/A   Partly Cloudy
3:52 AM 50.0 °F - 34.0 °F 54% 29.70 in 10.0 mi WSW 13.8 mph 24.2 mph N/A   Overcast
4:52 AM 43.0 °F 37.2 °F 28.9 °F 58% 29.72 in 10.0 mi WSW 10.4 mph 27.6 mph N/A   Clear
5:52 AM 39.0 °F 31.0 °F 26.1 °F 60% 29.75 in 10.0 mi West 13.8 mph 25.3 mph N/A   Mostly Cloudy
6:52 AM 35.1 °F 25.9 °F 21.9 °F 59% 29.77 in 10.0 mi WSW 13.8 mph 24.2 mph N/A   Mostly Cloudy
7:52 AM 34.0 °F 23.8 °F 21.9 °F 61% 29.81 in 10.0 mi WSW 16.1 mph 26.5 mph N/A   Overcast
7:59 AM 34.0 °F 22.4 °F 21.0 °F 59% 29.80 in 10.0 mi WSW 20.7 mph 28.8 mph N/A   Overcast
8:24 AM 33.1 °F 21.9 °F 19.9 °F 59% 29.81 in 10.0 mi WSW 18.4 mph 25.3 mph N/A   Overcast
8:52 AM 33.1 °F 21.9 °F 19.9 °F 59% 29.83 in 10.0 mi West 18.4 mph 29.9 mph N/A   Overcast
9:12 AM 33.1 °F 23.0 °F 19.9 °F 59% 29.82 in 10.0 mi WSW 15.0 mph 26.5 mph N/A   Overcast
9:52 AM 34.0 °F 24.6 °F 19.9 °F 56% 29.85 in 10.0 mi WSW 13.8 mph 24.2 mph N/A   Overcast
10:52 AM 33.1 °F 20.6 °F 19.9 °F 59% 29.87 in 10.0 mi WSW 23.0 mph 32.2 mph N/A   Overcast
11:52 AM 34.0 °F 22.4 °F 19.9 °F 56% 29.89 in 10.0 mi WSW 20.7 mph 29.9 mph N/A   Overcast
12:52 PM 35.1 °F 23.3 °F 21.0 °F 57% 29.91 in 10.0 mi WSW 23.0 mph 35.7 mph N/A   Overcast
1:17 PM 37.0 °F 26.4 °F 21.0 °F 52% 29.91 in 10.0 mi WSW 20.7 mph 32.2 mph N/A   Overcast
1:52 PM 39.0 °F 29.0 °F 21.9 °F 50% 29.92 in 10.0 mi WSW 20.7 mph 29.9 mph N/A   Scattered Clouds
2:52 PM 42.1 °F 33.1 °F 23.0 °F 47% 29.93 in 10.0 mi West 20.7 mph 32.2 mph N/A   Partly Cloudy
3:52 PM 44.1 °F 35.9 °F 25.0 °F 47% 29.93 in 10.0 mi WSW 19.6 mph 25.3 mph N/A   Clear
4:52 PM 46.0 °F 38.8 °F 25.0 °F 44% 29.94 in 10.0 mi West 18.4 mph 24.2 mph N/A   Clear
5:52 PM 46.9 °F - 26.1 °F 44% 29.98 in 10.0 mi West 20.7 mph 27.6 mph N/A   Clear
6:52 PM 46.0 °F 40.6 °F 27.0 °F 47% 30.00 in 10.0 mi West 11.5 mph - N/A   Clear
7:52 PM 46.0 °F 42.5 °F 28.0 °F 50% 30.03 in 10.0 mi West 6.9 mph - N/A   Clear
8:52 PM 45.0 °F 41.2 °F 28.0 °F 52% 30.06 in 10.0 mi WSW 6.9 mph - N/A   Clear
9:52 PM 45.0 °F 41.8 °F 28.0 °F 52% 30.08 in 10.0 mi SW 5.8 mph - N/A   Clear
10:52 PM 44.1 °F 39.5 °F 28.9 °F 55% 30.09 in 10.0 mi West 8.1 mph - N/A   Overcast
11:52 PM 44.1 °F 40.8 °F 28.9 °F 55% 30.10 in 10.0 mi West 5.8 mph - N/A   Overcast